Date String (YYYY-MM-DD hh:mm:ss) UTC,Instrument flags,Ambient pressure (hPa),Sample flow (lpm),Bypass flow (lpm),Sample temperature (°C),Ambient temperature (°C),ASC tube jacket temperature (°C),LED temperature (°C),Box temperature (°C),Sample RH (%),Span deviation,Mass concentration (μg/m³),Mass concentration (μg/m³),Mass concentration (μg/m³)
DateTimeUTC,F1_M11,P_M11,Q1_M11,Q2_M11,T1_M11,T2_M11,T3_M11,T4_M11,T5_M11,U1_M11,ZSPAN_M11,X2_M11,X0_M11,X1_M11
2022-06-24 10:00:00,,0824.6,5.01,0.00,29.5,28.3,00.0,38.3,31.4,17.2,0000.0,0002.50,0005.03,0001.95
2022-06-24 10:01:00,,0824.6,5.00,0.00,29.5,28.4,00.0,38.3,31.4,17.3,0000.0,0002.52,0005.13,0001.96
2022-06-24 10:02:00,,0824.6,5.00,0.00,29.6,28.5,00.0,38.4,31.4,17.2,0000.0,0002.54,0005.31,0001.98
2022-06-24 10:03:00,,0824.6,5.00,0.00,29.6,28.5,00.0,38.4,31.5,17.1,0000.0,0002.49,0006.67,0001.98
2022-06-24 10:04:00,,0824.6,5.00,0.00,29.6,28.6,00.0,38.4,31.5,17.1,0000.0,0002.45,0007.15,0001.96
2022-06-24 10:05:00,,0824.6,4.99,0.00,29.6,28.6,00.0,38.4,31.5,17.2,0000.0,0002.41,0007.45,0001.95
2022-06-24 10:06:00,,0824.6,5.01,0.00,29.6,28.6,00.0,38.4,31.5,17.1,0000.0,0002.42,0007.96,0001.94
2022-06-24 10:07:00,,0824.6,5.01,0.00,29.7,28.7,00.0,38.4,31.5,17.0,0000.0,0002.38,0008.39,0001.92
2022-06-24 10:08:00,,0824.7,4.99,0.00,29.7,28.7,00.0,38.4,31.6,17.0,0000.0,0002.31,0008.43,0001.88
2022-06-24 10:09:00,,0824.7,5.00,0.00,29.7,28.7,00.0,38.5,31.6,17.0,0000.0,0002.26,0008.56,0001.82
2022-06-24 10:10:00,,0824.7,5.00,0.00,29.7,28.8,00.0,38.5,31.6,16.9,0000.0,0002.18,0008.34,0001.77
2022-06-24 10:11:00,,0824.7,4.99,0.00,29.7,28.8,00.0,38.5,31.7,16.9,0000.0,0002.07,0008.16,0001.72
2022-06-24 10:12:00,,0824.6,5.01,0.00,29.8,28.8,00.0,38.5,31.7,16.9,0000.0,0001.97,0008.08,0001.65
2022-06-24 10:13:00,,0824.6,5.01,0.00,29.8,28.8,00.0,38.5,31.7,16.9,0000.0,0001.92,0008.31,0001.60
2022-06-24 10:14:00,,0824.6,5.01,0.00,29.8,28.8,00.0,38.5,31.7,16.9,0000.0,0001.93,0007.91,0001.58
2022-06-24 10:15:00,,0824.6,5.01,0.00,29.8,28.3,00.0,38.5,31.6,16.8,0000.0,0001.93,0007.33,0001.58
2022-06-24 10:16:00,,0824.7,5.00,0.00,29.7,27.6,00.0,38.4,31.4,16.7,0000.0,0001.90,0006.46,0001.57
2022-06-24 10:17:00,,0824.7,5.02,0.00,29.6,27.4,00.0,38.4,31.3,16.8,0000.0,0001.88,0006.10,0001.54
2022-06-24 10:18:00,,0824.5,5.00,0.00,29.6,27.4,00.0,38.4,31.2,16.8,0000.0,0001.84,0005.20,0001.49
2022-06-24 10:19:00,,0824.5,5.00,0.00,29.5,27.5,00.0,38.4,31.2,16.9,0000.0,0001.82,0005.00,0001.45
2022-06-24 10:20:00,,0824.7,4.99,0.00,29.5,27.6,00.0,38.4,31.2,16.9,0000.0,0001.78,0004.70,0001.41
2022-06-24 10:21:00,,0824.7,5.00,0.00,29.5,27.7,00.0,38.4,31.3,16.9,0000.0,0001.77,0004.46,0001.38
2022-06-24 10:22:00,,0824.6,5.00,0.00,29.5,27.9,00.0,38.4,31.3,17.0,0000.0,0001.80,0004.82,0001.35
2022-06-24 10:23:00,,0824.6,5.00,0.00,29.5,28.0,00.0,38.4,31.3,17.0,0000.0,0001.79,0004.88,0001.33
2022-06-24 10:24:00,,0824.6,5.01,0.00,29.5,28.1,00.0,38.4,31.3,17.0,0000.0,0001.78,0004.24,0001.30
2022-06-24 10:25:00,,0824.7,5.00,0.00,29.5,28.2,00.0,38.4,31.4,17.0,0000.0,0001.74,0003.53,0001.27
2022-06-24 10:26:00,,0824.7,5.00,0.00,29.5,28.2,00.0,38.4,31.4,17.1,0000.0,0001.71,0003.44,0001.22
2022-06-24 10:27:00,,0824.6,5.00,0.00,29.5,28.3,00.0,38.4,31.4,17.1,0000.0,0001.69,0003.37,0001.17
2022-06-24 10:28:00,,0824.6,5.00,0.00,29.5,28.4,00.0,38.4,31.4,16.9,0000.0,0001.62,0002.84,0001.13
2022-06-24 10:29:00,,0824.6,4.99,0.00,29.6,28.4,00.0,38.4,31.4,17.1,0000.0,0001.60,0002.81,0001.11
2022-06-24 10:30:00,,0824.6,5.01,0.00,29.6,28.5,00.0,38.4,31.5,17.0,0000.0,0001.57,0002.73,0001.11
2022-06-24 10:31:00,,0824.6,5.00,0.00,29.6,28.5,00.0,38.4,31.5,17.0,0000.0,0001.53,0002.68,0001.08
2022-06-24 10:32:00,,0824.6,5.01,0.00,29.6,28.6,00.0,38.4,31.5,16.9,0000.0,0001.48,0002.56,0001.06
2022-06-24 10:33:00,,0824.6,5.00,0.00,29.6,28.6,00.0,38.4,31.5,17.0,0000.0,0001.42,0002.18,0001.04
2022-06-24 10:34:00,,0824.6,5.00,0.00,29.7,28.6,00.0,38.4,31.6,17.0,0000.0,0001.41,0002.17,0001.03
2022-06-24 10:35:00,,0824.7,4.98,0.00,29.7,28.7,00.0,38.5,31.6,16.9,0000.0,0001.39,0002.14,0001.01
2022-06-24 10:36:00,,0824.8,5.00,0.00,29.7,28.7,00.0,38.5,31.6,17.0,0000.0,0001.36,0002.13,0000.98
2022-06-24 10:37:00,,0824.8,5.01,0.00,29.7,28.7,00.0,38.5,31.6,17.0,0000.0,0001.36,0002.11,0000.97
2022-06-24 10:38:00,,0824.8,5.01,0.00,29.7,28.8,00.0,38.5,31.7,17.1,0000.0,0001.34,0002.11,0000.96
2022-06-24 10:39:00,,0824.8,5.01,0.00,29.8,28.8,00.0,38.5,31.7,17.2,0000.0,0001.35,0002.14,0000.98
2022-06-24 10:40:00,,0824.8,5.00,0.00,29.8,28.8,00.0,38.5,31.7,17.1,0000.0,0001.34,0002.14,0000.98
2022-06-24 10:41:00,,0824.8,4.99,0.00,29.8,28.9,00.0,38.6,31.7,17.1,0000.0,0001.36,0002.19,0000.98
2022-06-24 10:42:00,,0824.8,4.99,0.00,29.8,28.9,00.0,38.6,31.8,17.1,0000.0,0001.44,0002.34,0000.99
2022-06-24 10:43:00,,0824.8,4.99,0.00,29.8,28.5,00.0,38.5,31.7,17.2,0000.0,0001.48,0002.43,0001.01
2022-06-24 10:44:00,,0824.8,4.99,0.00,29.8,27.8,00.0,38.5,31.5,17.3,0000.0,0001.51,0002.48,0001.02
2022-06-24 10:45:00,,0824.8,5.00,0.00,29.7,27.5,00.0,38.4,31.4,17.4,0000.0,0001.48,0002.33,0001.01
2022-06-24 10:46:00,,0824.8,5.01,0.00,29.6,27.5,00.0,38.4,31.3,17.4,0000.0,0001.43,0002.24,0001.00
2022-06-24 10:47:00,,0824.8,5.00,0.00,29.6,27.5,00.0,38.4,31.3,17.5,0000.0,0001.37,0002.09,0000.99
2022-06-24 10:48:00,,0824.8,4.99,0.00,29.6,27.6,00.0,38.4,31.3,17.5,0000.0,0001.32,0001.99,0000.98
2022-06-24 10:49:00,,0824.8,4.99,0.00,29.5,27.8,00.0,38.4,31.3,17.5,0000.0,0001.30,0001.91,0000.97
2022-06-24 10:50:00,,0824.9,4.99,0.00,29.5,27.9,00.0,38.4,31.3,17.5,0000.0,0001.29,0001.92,0000.96
2022-06-24 10:51:00,,0824.9,5.00,0.00,29.5,28.0,00.0,38.4,31.3,17.4,0000.0,0001.28,0002.00,0000.94
2022-06-24 10:52:00,,0824.9,5.01,0.00,29.5,28.1,00.0,38.4,31.4,17.3,0000.0,0001.25,0002.83,0000.92
2022-06-24 10:53:00,,0824.9,5.00,0.00,29.5,28.2,00.0,38.4,31.4,17.2,0000.0,0001.17,0003.17,0000.90
2022-06-24 10:54:00,,0824.9,4.99,0.00,29.6,28.3,00.0,38.4,31.4,17.2,0000.0,0001.12,0003.12,0000.88
2022-06-24 10:55:00,,0824.9,4.99,0.00,29.6,28.3,00.0,38.4,31.4,17.2,0000.0,0001.15,0003.24,0000.86
2022-06-24 10:56:00,,0824.9,5.00,0.00,29.6,28.4,00.0,38.4,31.5,17.3,0000.0,0001.24,0003.52,0000.88
2022-06-24 10:57:00,,0824.9,5.00,0.00,29.6,28.5,00.0,38.4,31.5,17.3,0000.0,0001.25,0003.56,0000.89
2022-06-24 10:58:00,,0824.9,5.01,0.00,29.6,28.5,00.0,38.4,31.5,17.3,0000.0,0001.27,0003.66,0000.88
2022-06-24 10:59:00,,0824.9,5.00,0.00,29.6,28.6,00.0,38.4,31.5,17.2,0000.0,0001.30,0003.79,0000.88
